Rodez, France

11:21 AM CET on January 16, 2018 (GMT +0100)
Marcillac

Weather History for LFCR - January, 2014

Change the Weather History Date:

Tuesday, January 21, 2014

  Actual Average Record
Temperature  
Mean Temperature 32 °F -  
Max Temperature 39 °F - - ()
Min Temperature 26 °F - - ()
Degree Days  
Heating Degree Days 32    
Moisture  
Dew Point 31 °F    
Average Humidity 87    
Maximum Humidity 100    
Minimum Humidity 61    
Precipitation  
Precipitation 0.00 in - - ()
Sea Level Pressure  
Sea Level Pressure 29.95 in    
Wind  
Wind Speed 9 mph ()    
Max Wind Speed 15 mph    
Max Gust Speed -    
Visibility 6.2 miles    
Events Rain    
T = Trace of Precipitation, MM = Missing Value Source: Averaged Metar Reports

Daily Weather History Graph

Daily Weather History Graph

Search for Another Location

Airport or City:

Trip Planner

Search our weather history database for the weather conditions in past years. The results will help you decide how hot, cold, wet, or windy it might be!

Date:

Astronomy

Jan. 21, 2014 Rise Set
Actual Time 8:19 AM CET 5:44 PM CET
Civil Twilight 7:47 AM CET 6:15 PM CET
Nautical Twilight 7:11 AM CET 6:51 PM CET
Astronomical Twilight 6:37 AM CET 7:26 PM CET
Moon 11:16 PM CET (1/21) 10:28 AM CET (1/21)
Length of Visible Light 10h 28m
Length of Day
9h 25m
Waning Gibbous, 77% of the Moon is Illuminated
Jan 21
Waning Gibbous
Jan 24
Last Quarter
Jan 30
New
Feb 6
First Quarter
Feb 15
Full

Hourly Weather History & Observations

Time (CET) Temp. Windchill Dew Point Humidity Pressure Visibility Wind Dir Wind Speed Gust Speed Precip Events Conditions
12:00 AM 36 °F - 35 °F 92% 29.97 in 9 mi WNW 15.0 mph - -   Clear
12:00 AM 35.6 °F 26.2 °F 33.8 °F 93% 29.89 in 6.2 mi WNW 15.0 mph - N/A   Overcast
12:30 AM 35.6 °F 27.1 °F 33.8 °F 93% 29.92 in 6.2 mi NW 12.7 mph - N/A   Overcast
1:00 AM 36 °F - 33 °F 87% 29.98 in 12 mi NW 11.5 mph - -   Clear
1:00 AM 35.6 °F 27.5 °F 33.8 °F 93% 29.92 in 6.2 mi NW 11.5 mph - N/A   Overcast
1:30 AM 35.6 °F 27.5 °F 33.8 °F 93% 29.92 in 6.2 mi NW 11.5 mph - N/A   Overcast
2:00 AM 36 °F - 34 °F 87% 29.99 in 9 mi NNW 6.9 mph - -   Clear
2:00 AM 35.6 °F 29.9 °F 33.8 °F 93% 29.92 in 6.2 mi NNW 6.9 mph - N/A   Overcast
2:30 AM 35.6 °F 28.0 °F 35.6 °F 100% 29.92 in 5.6 mi NW 10.4 mph - N/A   Overcast
3:00 AM 36 °F - 35 °F 93% 30.00 in 4 mi NW 10.4 mph - -   Clear
3:00 AM 35.6 °F 28.0 °F 35.6 °F 100% 29.92 in 4.3 mi NW 10.4 mph - N/A   Overcast
3:30 AM 35.6 °F 27.1 °F 35.6 °F 100% 29.92 in 3.7 mi NW 12.7 mph - N/A   Overcast
4:00 AM 36 °F - 35 °F 95% 30.00 in 3 mi NW 11.5 mph - -   Clear
4:00 AM 35.6 °F 27.5 °F 35.6 °F 100% 29.92 in 3.1 mi NW 11.5 mph - N/A   Overcast
4:30 AM 35.6 °F 28.0 °F 35.6 °F 100% 29.92 in - NW 10.4 mph - N/A   Overcast
5:00 AM 36 °F - 35 °F 93% 30.00 in 5 mi NW 12.7 mph - -   Clear
5:00 AM 35.6 °F 27.1 °F 35.6 °F 100% 29.92 in 5.0 mi NW 12.7 mph - N/A   Overcast
5:30 AM 35.6 °F 27.1 °F 33.8 °F 93% 29.92 in 6.2 mi WNW 12.7 mph - N/A   Overcast
6:00 AM 35 °F - 34 °F 94% 30.01 in 6 mi NW 12.7 mph - -   Clear
6:00 AM 35.6 °F 27.1 °F 33.8 °F 93% 29.92 in 6.2 mi NW 12.7 mph - N/A   Overcast
6:30 AM 35.6 °F 28.0 °F 33.8 °F 93% 29.95 in - NW 10.4 mph - N/A Rain Light Rain
7:00 AM 35 °F - 34 °F 92% 30.02 in 7 mi NW 10.4 mph - -   Clear
7:00 AM 35.6 °F 28.0 °F 33.8 °F 93% 29.95 in 6.2 mi NW 10.4 mph - N/A   Mostly Cloudy
7:30 AM 35.6 °F 27.5 °F 33.8 °F 93% 29.95 in 5.0 mi WNW 11.5 mph - N/A   Overcast
8:00 AM 34 °F - 32 °F 91% 30.03 in 9 mi WNW 11.5 mph - -   Clear
8:00 AM 33.8 °F 25.3 °F 32.0 °F 93% 29.95 in 6.2 mi WNW 11.5 mph - N/A   Overcast
8:30 AM 35.6 °F 28.0 °F 33.8 °F 93% 29.95 in 6.2 mi NW 10.4 mph - N/A   Mostly Cloudy
9:00 AM 35 °F - 33 °F 91% 30.04 in 7 mi NW 9.2 mph - -   Clear
9:00 AM 35.6 °F 28.6 °F 33.8 °F 93% 29.95 in 6.2 mi NW 9.2 mph - N/A   Overcast
9:30 AM 35.6 °F 28.0 °F 33.8 °F 93% 29.95 in 6.2 mi NW 10.4 mph - N/A   Overcast
10:00 AM 35 °F - 34 °F 93% 30.04 in 8 mi NW 6.9 mph - -   Clear
10:00 AM 35.6 °F 29.9 °F 33.8 °F 93% 29.98 in 6.2 mi NW 6.9 mph - N/A   Mostly Cloudy
10:30 AM 35.6 °F 29.9 °F 33.8 °F 93% 29.98 in 6.2 mi NNW 6.9 mph - N/A   Overcast
11:00 AM 36 °F - 33 °F 87% 30.04 in 12 mi NW 8.1 mph - -   Clear
11:00 AM 35.6 °F 29.2 °F 33.8 °F 93% 29.98 in 6.2 mi NW 8.1 mph - N/A   Overcast
11:30 AM 37.4 °F 30.8 °F 32.0 °F 81% 29.98 in 6.2 mi NW 9.2 mph - N/A   Overcast
12:00 PM 38 °F - 31 °F 66% 30.02 in 37 mi NW 10.4 mph - -   Clear
12:00 PM 37.4 °F 30.3 °F 30.2 °F 75% 29.95 in 6.2 mi NW 10.4 mph - N/A   Mostly Cloudy
12:30 PM 39.2 °F 32.5 °F 30.2 °F 70% 29.95 in 6.2 mi WNW 10.4 mph - N/A   Mostly Cloudy
1:00 PM 38 °F - 31 °F 67% 30.00 in 37 mi NW 11.5 mph - -   Clear
1:00 PM 39.2 °F 32.0 °F 30.2 °F 70% 29.95 in 6.2 mi NW 11.5 mph - N/A   Overcast
1:30 PM 39.2 °F 32.5 °F 30.2 °F 70% 29.92 in 6.2 mi NW 10.4 mph - N/A   Overcast
2:00 PM 39 °F - 30 °F 61% 29.99 in 22 mi NNW 8.1 mph - -   Clear
2:00 PM 39.2 °F 33.6 °F 30.2 °F 70% 29.92 in 6.2 mi NNW 8.1 mph - N/A   Overcast
2:30 PM 39.2 °F 34.2 °F 32.0 °F 75% 29.92 in 6.2 mi NW 6.9 mph - N/A   Mostly Cloudy
3:00 PM 38 °F - 31 °F 68% 29.98 in 28 mi NW 8.1 mph - -   Clear
3:00 PM 39.2 °F 33.6 °F 32.0 °F 75% 29.92 in 6.2 mi NW 8.1 mph - N/A   Mostly Cloudy
3:30 PM 39.2 °F 34.2 °F 30.2 °F 70% 29.92 in 6.2 mi WNW 6.9 mph - N/A   Mostly Cloudy
4:00 PM 39 °F - 31 °F 65% 29.98 in 31 mi NNW 8.1 mph - -   Clear
4:00 PM 39.2 °F 33.6 °F 32.0 °F 75% 29.92 in 6.2 mi NNW 8.1 mph - N/A   Mostly Cloudy
4:30 PM 39.2 °F 35.0 °F 30.2 °F 70% 29.92 in 6.2 mi NNW 5.8 mph - N/A   Partly Cloudy
5:00 PM 38 °F - 30 °F 64% 29.97 in 28 mi NNW 4.6 mph - -   Clear
5:00 PM 39.2 °F 35.9 °F 30.2 °F 70% 29.92 in 6.2 mi NNW 4.6 mph - N/A   Unknown
5:30 PM 35.6 °F 31.7 °F 28.4 °F 75% 29.92 in 6.2 mi NW 4.6 mph - N/A   Unknown
6:00 PM 32 °F - 28 °F 80% 30.00 in 28 mi WNW 5.8 mph - -   Clear
6:00 PM 32.0 °F 26.4 °F 28.4 °F 87% 29.92 in 6.2 mi WNW 5.8 mph - N/A   Unknown
6:30 PM 32.0 °F - 28.4 °F 87% 29.89 in 6.2 mi West 1.2 mph - N/A   Unknown
7:00 PM 31 °F - 28 °F 82% 30.00 in 22 mi WSW 2.3 mph - -   Clear
7:00 PM 30.2 °F - 28.4 °F 93% 29.92 in 6.2 mi WSW 2.3 mph - N/A   Unknown
7:30 PM 30.2 °F - 26.6 °F 86% 29.89 in 6.2 mi WSW 2.3 mph - N/A   Unknown
8:00 PM 29 °F - 27 °F 90% 30.00 in 10 mi Calm Calm - -   Clear
8:00 PM 28.4 °F - 26.6 °F 93% 29.89 in 6.2 mi Calm Calm - N/A   Unknown
8:30 PM 28.4 °F - 26.6 °F 93% 29.89 in 6.2 mi Calm Calm - N/A   Unknown
9:00 PM 27 °F - 25 °F 91% 30.00 in 5 mi SSE 2.3 mph - -   Clear
9:00 PM 26.6 °F - 24.8 °F 93% 29.89 in 5.0 mi SSE 2.3 mph - N/A   Unknown
9:30 PM 26.6 °F - 26.6 °F 100% 29.89 in 6.2 mi Variable 2.3 mph - N/A   Unknown
10:00 PM 27 °F - 26 °F 94% 29.99 in 5 mi SSE 3.5 mph - -   Clear
10:00 PM 26.6 °F 22.6 °F 26.6 °F 100% 29.89 in 5.0 mi SSE 3.5 mph - N/A   Unknown
10:30 PM 30.2 °F 26.7 °F 28.4 °F 93% 29.86 in 6.2 mi ESE 3.5 mph - N/A   Unknown
11:00 PM 28 °F - 26 °F 91% 29.96 in 6 mi SE 3.5 mph - -   Clear
11:00 PM 28.4 °F 24.6 °F 26.6 °F 93% 29.86 in 6.2 mi SE 3.5 mph - N/A   Unknown
11:30 PM 26.6 °F - 24.8 °F 93% 29.86 in 3.7 mi ESE 1.2 mph - N/A   Unknown